Location: Newark
(39.5667°N, 8.9833°E)
Time: 01:21:23
(UTC+00:00)

Transit 2A - Pass Details

Date: 01 November 2019
Orbit: 601 x 957 km, 66.7° (Epoch: 14 November)

Event Time Altitude Azimuth Distance (km) Brightness Sun altitude
Rises 15:11:33 0° 197° (SSW) 3,364 10.1 11.7°
Reaches altitude 10° 15:14:08 10° 194° (SSW) 2,377 9.3 11.3°
Maximum altitude 15:19:27 60° 116° (ESE) 854 6.3 10.4°
Drops below altitude 10° 15:24:17 10° 37° (NE) 2,160 7.8 9.6°
Sets 15:26:32 0° 33° (NNE) 3,031 8.6 9.2°
